Time,TemperatureF,DewpointF,PressureIn,WindDirection,WindDirectionDegrees,WindSpeedMPH,WindSpeedGustMPH,Humidity,HourlyPrecipIn,Conditions,Clouds,dailyrainin,SolarRadiationWatts/m^2,SoftwareType,DateUTC
2015-07-30 00:02:00,76.1,74.9,29.99,SW,234,0.0,6.0,96,0.00,,FEW070,0.00,0.00,VWS V15.00,2015-07-30 04:02:00,
2015-07-30 00:08:00,76.1,74.9,29.99,SW,234,1.5,6.0,96,0.00,,FEW070,0.00,0.00,VWS V15.00,2015-07-30 04:08:00,
2015-07-30 00:13:00,76.0,74.8,29.99,SW,230,0.0,6.0,96,0.00,,FEW070,0.00,0.00,VWS V15.00,2015-07-30 04:13:00,
2015-07-30 00:23:00,75.9,75.0,29.99,SW,230,0.0,6.0,97,0.00,,FEW070,0.00,0.00,VWS V15.00,2015-07-30 04:23:00,
2015-07-30 00:28:00,75.9,75.0,29.99,SW,230,1.5,6.0,97,0.00,,FEW070,0.00,0.00,VWS V15.00,2015-07-30 04:28:00,
2015-07-30 00:33:00,75.8,74.9,29.99,SW,230,0.0,6.0,97,0.00,,FEW070,0.00,0.00,VWS V15.00,2015-07-30 04:33:00,
2015-07-30 00:38:00,75.8,74.9,29.99,SW,230,0.0,6.0,97,0.00,,FEW070,0.00,0.00,VWS V15.00,2015-07-30 04:38:00,
2015-07-30 00:44:00,75.7,74.8,29.99,SW,230,0.0,6.0,97,0.00,,FEW070,0.00,0.00,VWS V15.00,2015-07-30 04:44:00,
2015-07-30 00:49:00,75.7,74.8,29.99,SW,232,0.0,6.0,97,0.00,,FEW070,0.00,0.00,VWS V15.00,2015-07-30 04:49:00,
2015-07-30 00:54:00,75.6,74.7,29.99,SW,232,0.0,6.0,97,0.00,,FEW070,0.00,0.00,VWS V15.00,2015-07-30 04:54:00,
2015-07-30 00:59:00,75.6,74.7,29.99,SW,232,0.0,6.0,97,0.00,,FEW070,0.00,0.00,VWS V15.00,2015-07-30 04:59:00,
2015-07-30 01:04:00,75.5,74.6,29.99,SW,232,0.0,6.0,97,0.00,,FEW070,0.00,0.00,VWS V15.00,2015-07-30 05:04:00,
2015-07-30 01:09:00,75.5,74.6,29.99,SW,232,1.5,6.0,97,0.00,,FEW070,0.00,0.00,VWS V15.00,2015-07-30 05:09:00,
2015-07-30 01:14:00,75.5,74.6,29.99,SW,232,1.5,6.0,97,0.00,,FEW070,0.00,0.00,VWS V15.00,2015-07-30 05:14:00,
2015-07-30 01:19:00,75.5,74.6,29.99,SW,232,0.0,6.0,97,0.00,,FEW070,0.00,0.00,VWS V15.00,2015-07-30 05:19:00,
2015-07-30 01:24:00,75.4,74.5,29.99,SW,232,0.0,6.0,97,0.00,,FEW070,0.00,0.00,VWS V15.00,2015-07-30 05:24:00,
2015-07-30 01:29:00,75.4,74.5,29.99,SW,232,0.0,6.0,97,0.00,,FEW070,0.00,0.00,VWS V15.00,2015-07-30 05:29:00,
2015-07-30 01:34:00,75.3,74.4,29.99,SW,232,0.0,6.0,97,0.00,,FEW070,0.00,0.00,VWS V15.00,2015-07-30 05:34:00,
2015-07-30 01:39:00,75.3,74.4,29.99,SW,232,0.0,6.0,97,0.00,,FEW070,0.00,0.00,VWS V15.00,2015-07-30 05:39:00,
2015-07-30 01:44:00,75.2,74.3,29.99,SW,232,0.0,6.0,97,0.00,,FEW070,0.00,0.00,VWS V15.00,2015-07-30 05:44:00,
2015-07-30 01:49:00,75.2,74.3,29.99,SW,232,0.0,6.0,97,0.00,,FEW070,0.00,0.00,VWS V15.00,2015-07-30 05:49:00,
2015-07-30 02:00:00,75.1,74.2,29.99,SSW,213,0.0,6.0,97,0.00,,FEW070,0.00,0.00,VWS V15.00,2015-07-30 06:00:00,
2015-07-30 02:05:00,75.1,74.5,29.99,SSW,213,0.0,6.0,98,0.00,,FEW070,0.00,0.00,VWS V15.00,2015-07-30 06:05:00,
2015-07-30 02:10:00,75.0,74.4,29.99,SW,214,0.0,6.0,98,0.00,,FEW070,0.00,0.00,VWS V15.00,2015-07-30 06:10:00,
2015-07-30 02:15:00,75.1,74.5,29.99,SSW,213,0.0,6.0,98,0.00,,FEW070,0.00,0.00,VWS V15.00,2015-07-30 06:15:00,
2015-07-30 02:20:00,75.1,74.5,29.99,SSW,213,0.0,6.0,98,0.00,,FEW070,0.00,0.00,VWS V15.00,2015-07-30 06:20:00,
2015-07-30 02:25:00,75.1,74.5,29.99,SSW,213,0.0,6.0,98,0.00,,FEW070,0.00,0.00,VWS V15.00,2015-07-30 06:25:00,
2015-07-30 02:30:00,75.1,74.5,29.99,SW,215,0.0,6.0,98,0.00,,FEW070,0.00,0.00,VWS V15.00,2015-07-30 06:30:00,
2015-07-30 02:35:00,75.0,74.4,29.99,SW,215,0.0,6.0,98,0.00,,FEW070,0.00,0.00,VWS V15.00,2015-07-30 06:35:00,
2015-07-30 02:40:00,74.9,74.3,29.99,SSW,212,0.0,6.0,98,0.00,,FEW070,0.00,0.00,VWS V15.00,2015-07-30 06:40:00,
2015-07-30 02:45:00,74.9,74.3,29.99,SSW,213,0.0,6.0,98,0.00,,FEW070,0.00,0.00,VWS V15.00,2015-07-30 06:45:00,
2015-07-30 02:50:00,74.8,74.2,29.99,SSW,213,0.0,6.0,98,0.00,,FEW070,0.00,0.00,VWS V15.00,2015-07-30 06:50:00,
2015-07-30 02:55:00,74.8,74.2,29.99,SSW,213,0.0,6.0,98,0.00,,FEW070,0.00,0.00,VWS V15.00,2015-07-30 06:55:00,
2015-07-30 03:00:00,74.7,74.1,29.99,SSW,213,0.0,6.0,98,0.00,,FEW070,0.00,0.00,VWS V15.00,2015-07-30 07:00:00,
2015-07-30 03:05:00,74.6,74.0,29.99,SW,222,0.0,6.0,98,0.00,,FEW070,0.00,0.00,VWS V15.00,2015-07-30 07:05:00,
2015-07-30 03:10:00,74.5,73.9,29.99,SW,221,0.0,6.0,98,0.00,,FEW070,0.00,0.00,VWS V15.00,2015-07-30 07:10:00,
2015-07-30 03:15:00,74.3,73.7,29.99,SW,221,0.0,6.0,98,0.00,,FEW070,0.00,0.00,VWS V15.00,2015-07-30 07:15:00,
2015-07-30 03:21:00,74.2,73.3,29.99,SW,222,0.0,6.0,97,0.00,,FEW070,0.00,0.00,VWS V15.00,2015-07-30 07:21:00,
2015-07-30 03:26:00,74.0,73.1,29.99,SW,222,0.0,6.0,97,0.00,,FEW070,0.00,0.00,VWS V15.00,2015-07-30 07:26:00,
2015-07-30 03:31:00,73.8,72.9,29.99,SW,222,0.0,6.0,97,0.00,,FEW070,0.00,0.00,VWS V15.00,2015-07-30 07:31:00,
2015-07-30 03:36:00,73.7,72.8,29.99,SW,221,0.0,6.0,97,0.00,,FEW070,0.00,0.00,VWS V15.00,2015-07-30 07:36:00,
2015-07-30 03:41:00,73.7,72.8,29.99,SW,222,0.0,6.0,97,0.00,,FEW070,0.00,0.00,VWS V15.00,2015-07-30 07:41:00,
2015-07-30 03:46:00,73.6,72.7,29.99,SW,222,0.0,6.0,97,0.00,,FEW070,0.00,0.00,VWS V15.00,2015-07-30 07:46:00,
2015-07-30 03:51:00,73.5,72.6,29.99,SW,222,0.0,6.0,97,0.00,,FEW070,0.00,0.00,VWS V15.00,2015-07-30 07:51:00,
2015-07-30 03:56:00,73.5,72.6,30.00,SW,222,0.0,6.0,97,0.00,,FEW070,0.00,0.00,VWS V15.00,2015-07-30 07:56:00,
2015-07-30 04:01:00,73.5,72.6,30.00,SW,222,0.0,6.0,97,0.00,,FEW070,0.00,0.00,VWS V15.00,2015-07-30 08:01:00,
2015-07-30 04:06:00,73.5,72.6,30.00,SW,221,0.0,6.0,97,0.00,,FEW070,0.00,0.00,VWS V15.00,2015-07-30 08:06:00,
2015-07-30 04:11:00,73.3,72.4,30.00,SW,221,0.0,6.0,97,0.00,,FEW070,0.00,0.00,VWS V15.00,2015-07-30 08:11:00,
2015-07-30 04:16:00,73.3,72.4,30.00,SW,221,0.0,6.0,97,0.00,,FEW070,0.00,0.00,VWS V15.00,2015-07-30 08:16:00,
2015-07-30 04:21:00,73.2,72.3,30.00,SW,222,0.0,6.0,97,0.00,,FEW070,0.00,0.00,VWS V15.00,2015-07-30 08:21:00,
2015-07-30 04:27:00,73.1,72.2,30.00,SW,222,0.0,6.0,97,0.00,,FEW070,0.00,0.00,VWS V15.00,2015-07-30 08:27:00,
2015-07-30 04:32:00,73.1,72.2,30.00,SW,221,0.0,6.0,97,0.00,,FEW070,0.00,0.00,VWS V15.00,2015-07-30 08:32:00,
2015-07-30 04:37:00,73.1,72.2,30.01,SW,221,0.0,6.0,97,0.00,,FEW070,0.00,0.00,VWS V15.00,2015-07-30 08:37:00,
2015-07-30 04:42:00,73.1,72.2,30.01,SW,222,0.0,6.0,97,0.00,,FEW070,0.00,0.00,VWS V15.00,2015-07-30 08:42:00,
2015-07-30 04:47:00,73.0,71.8,30.01,SW,221,0.0,6.0,96,0.00,,FEW070,0.00,0.00,VWS V15.00,2015-07-30 08:47:00,
2015-07-30 04:52:00,73.0,71.8,30.01,SW,222,0.0,6.0,96,0.00,,FEW070,0.00,0.00,VWS V15.00,2015-07-30 08:52:00,
2015-07-30 04:57:00,72.9,71.7,30.01,SW,222,0.0,6.0,96,0.00,,FEW070,0.00,0.00,VWS V15.00,2015-07-30 08:57:00,
2015-07-30 05:02:00,72.8,71.6,30.01,SW,221,0.0,6.0,96,0.00,,FEW070,0.00,0.00,VWS V15.00,2015-07-30 09:02:00,
2015-07-30 05:07:00,72.6,71.4,30.01,SW,222,0.0,6.0,96,0.00,,FEW070,0.00,0.00,VWS V15.00,2015-07-30 09:07:00,
2015-07-30 05:22:00,72.4,71.2,30.02,SW,221,0.0,6.0,96,0.00,,FEW070,0.00,0.00,VWS V15.00,2015-07-30 09:22:00,
2015-07-30 05:27:00,72.1,70.6,30.02,SW,221,0.0,6.0,95,0.00,,FEW070,0.00,0.00,VWS V15.00,2015-07-30 09:27:00,
2015-07-30 05:32:00,71.9,70.4,30.02,SW,221,0.0,6.0,95,0.00,,FEW070,0.00,0.00,VWS V15.00,2015-07-30 09:32:00,
2015-07-30 05:38:00,71.7,70.5,30.02,SW,221,0.0,6.0,96,0.00,,FEW070,0.00,0.00,VWS V15.00,2015-07-30 09:38:00,
2015-07-30 05:43:00,71.6,70.1,30.02,SW,222,0.0,6.0,95,0.00,,FEW070,0.00,0.00,VWS V15.00,2015-07-30 09:43:00,
2015-07-30 05:48:00,71.5,70.0,30.02,SW,222,0.0,6.0,95,0.00,,FEW070,0.00,0.00,VWS V15.00,2015-07-30 09:48:00,
2015-07-30 05:53:00,71.3,69.8,30.02,SW,221,0.0,6.0,95,0.00,,FEW070,0.00,0.00,VWS V15.00,2015-07-30 09:53:00,
2015-07-30 05:58:00,71.2,69.7,30.02,SW,222,0.0,6.0,95,0.00,,FEW070,0.00,0.00,VWS V15.00,2015-07-30 09:58:00,
2015-07-30 06:03:00,71.1,69.6,30.03,SW,221,0.0,6.0,95,0.00,,FEW070,0.00,0.00,VWS V15.00,2015-07-30 10:03:00,
2015-07-30 06:08:00,70.9,69.4,30.02,SW,221,0.0,6.0,95,0.00,,FEW070,0.00,0.00,VWS V15.00,2015-07-30 10:08:00,
2015-07-30 06:13:00,70.7,69.2,30.03,SW,222,0.0,6.0,95,0.00,,FEW070,0.00,0.00,VWS V15.00,2015-07-30 10:13:00,
2015-07-30 06:18:00,70.5,69.0,30.03,SW,221,0.0,6.0,95,0.00,,FEW070,0.00,0.00,VWS V15.00,2015-07-30 10:18:00,
2015-07-30 06:23:00,70.4,68.9,30.03,SW,222,0.0,6.0,95,0.00,,FEW070,0.00,0.00,VWS V15.00,2015-07-30 10:23:00,
2015-07-30 06:28:00,70.2,68.7,30.03,SW,221,0.0,6.0,95,0.00,,FEW070,0.00,0.00,VWS V15.00,2015-07-30 10:28:00,
2015-07-30 06:33:00,69.9,68.4,30.04,SW,221,0.0,6.0,95,0.00,,FEW070,0.00,0.00,VWS V15.00,2015-07-30 10:33:00,
2015-07-30 06:38:00,69.7,68.2,30.04,SW,222,0.0,6.0,95,0.00,,FEW070,0.00,0.00,VWS V15.00,2015-07-30 10:38:00,
2015-07-30 06:43:00,69.5,68.0,30.03,SW,222,0.0,6.0,95,0.00,,FEW070,0.00,7.00,VWS V15.00,2015-07-30 10:43:00,
2015-07-30 06:48:00,69.4,67.9,30.04,SW,222,0.0,6.0,95,0.00,,FEW070,0.00,11.00,VWS V15.00,2015-07-30 10:48:00,
2015-07-30 06:54:00,69.2,67.7,30.04,SW,222,0.0,6.0,95,0.00,,FEW070,0.00,18.00,VWS V15.00,2015-07-30 10:54:00,
2015-07-30 06:59:00,69.0,67.5,30.04,SW,221,0.0,6.0,95,0.00,,FEW070,0.00,25.00,VWS V15.00,2015-07-30 10:59:00,
2015-07-30 07:04:00,68.8,67.3,30.04,SW,221,0.0,6.0,95,0.00,,FEW070,0.00,32.00,VWS V15.00,2015-07-30 11:04:00,
2015-07-30 07:09:00,68.7,67.2,30.05,SW,222,0.0,6.0,95,0.00,,FEW070,0.00,33.00,VWS V15.00,2015-07-30 11:09:00,
2015-07-30 07:14:00,68.5,67.0,30.05,SW,222,0.0,6.0,95,0.00,,FEW070,0.00,44.00,VWS V15.00,2015-07-30 11:14:00,
2015-07-30 07:19:00,68.4,66.9,30.05,SW,222,0.0,6.0,95,0.00,,FEW070,0.00,47.00,VWS V15.00,2015-07-30 11:19:00,
2015-07-30 07:24:00,68.4,66.9,30.05,SW,221,0.0,6.0,95,0.00,,FEW070,0.00,47.00,VWS V15.00,2015-07-30 11:24:00,
2015-07-30 07:29:00,68.3,67.1,30.05,SW,222,0.0,6.0,96,0.00,,FEW070,0.00,86.00,VWS V15.00,2015-07-30 11:29:00,
2015-07-30 07:34:00,68.3,67.1,30.06,SW,221,0.0,6.0,96,0.00,,FEW070,0.00,88.00,VWS V15.00,2015-07-30 11:34:00,
2015-07-30 07:39:00,68.3,67.1,30.05,SW,222,0.0,6.0,96,0.00,,FEW070,0.00,111.00,VWS V15.00,2015-07-30 11:39:00,
2015-07-30 07:44:00,68.3,67.1,30.06,SW,222,0.0,6.0,96,0.00,,FEW070,0.00,123.00,VWS V15.00,2015-07-30 11:44:00,
2015-07-30 07:49:00,68.5,67.3,30.06,SW,222,0.0,6.0,96,0.00,,FEW070,0.00,114.00,VWS V15.00,2015-07-30 11:49:00,
2015-07-30 07:54:00,68.6,67.1,30.06,SW,221,0.0,6.0,95,0.00,,FEW070,0.00,95.00,VWS V15.00,2015-07-30 11:54:00,
2015-07-30 07:59:00,68.7,67.2,30.06,SW,222,0.0,6.0,95,0.00,,FEW070,0.00,142.00,VWS V15.00,2015-07-30 11:59:00,
2015-07-30 08:04:00,68.9,67.4,30.06,SW,222,0.0,6.0,95,0.00,,FEW070,0.00,172.00,VWS V15.00,2015-07-30 12:04:00,
2015-07-30 08:10:00,69.2,67.4,30.06,SW,222,0.0,6.0,94,0.00,,FEW070,0.00,192.00,VWS V15.00,2015-07-30 12:10:00,
2015-07-30 08:15:00,69.8,67.7,30.06,SW,222,0.0,6.0,93,0.00,,FEW070,0.00,234.00,VWS V15.00,2015-07-30 12:15:00,
2015-07-30 08:20:00,70.3,67.6,30.06,SW,222,0.0,6.0,91,0.00,,FEW070,0.00,251.00,VWS V15.00,2015-07-30 12:20:00,
2015-07-30 08:25:00,71.1,67.7,30.06,SW,222,0.0,6.0,89,0.00,,FEW070,0.00,269.00,VWS V15.00,2015-07-30 12:25:00,
2015-07-30 08:30:00,72.0,67.6,30.06,SW,222,0.0,6.0,86,0.00,,FEW070,0.00,283.00,VWS V15.00,2015-07-30 12:30:00,
2015-07-30 08:35:00,72.8,67.7,30.07,SW,222,0.0,6.0,84,0.00,,FEW070,0.00,279.00,VWS V15.00,2015-07-30 12:35:00,
2015-07-30 08:40:00,73.5,67.3,30.07,NNE,15,0.0,6.0,81,0.00,,FEW070,0.00,262.00,VWS V15.00,2015-07-30 12:40:00,
2015-07-30 08:45:00,73.9,67.3,30.07,NNE,15,0.0,6.0,80,0.00,,FEW070,0.00,315.00,VWS V15.00,2015-07-30 12:45:00,
2015-07-30 08:50:00,74.6,68.0,30.07,NNE,15,0.0,6.0,80,0.00,,FEW070,0.00,255.00,VWS V15.00,2015-07-30 12:50:00,
2015-07-30 08:55:00,74.8,67.5,30.07,NNE,15,0.0,6.0,78,0.00,,FEW070,0.00,251.00,VWS V15.00,2015-07-30 12:55:00,
2015-07-30 09:00:00,75.2,67.9,30.07,North,355,0.0,6.0,78,0.00,,FEW070,0.00,364.00,VWS V15.00,2015-07-30 13:00:00,
2015-07-30 09:05:00,75.6,67.9,30.07,WSW,241,1.5,6.0,77,0.00,,FEW070,0.00,366.00,VWS V15.00,2015-07-30 13:05:00,
2015-07-30 09:10:00,76.1,68.0,30.07,WSW,246,0.0,6.0,76,0.00,,FEW070,0.00,390.00,VWS V15.00,2015-07-30 13:10:00,
2015-07-30 09:15:00,76.6,68.1,30.07,WSW,246,0.0,6.0,75,0.00,,FEW070,0.00,404.00,VWS V15.00,2015-07-30 13:15:00,
2015-07-30 09:20:00,77.1,68.2,30.07,WSW,247,0.0,6.0,74,0.00,,FEW070,0.00,418.00,VWS V15.00,2015-07-30 13:20:00,
2015-07-30 09:26:00,77.3,66.8,30.07,North,360,1.5,6.0,70,0.00,,FEW070,0.00,432.00,VWS V15.00,2015-07-30 13:26:00,
2015-07-30 09:31:00,77.6,67.5,30.08,East,100,0.0,6.0,71,0.00,,FEW070,0.00,446.00,VWS V15.00,2015-07-30 13:31:00,
2015-07-30 09:36:00,77.8,67.7,30.08,WSW,258,0.0,6.0,71,0.00,,FEW070,0.00,461.00,VWS V15.00,2015-07-30 13:36:00,
2015-07-30 09:41:00,78.2,68.0,30.08,WNW,300,0.0,6.0,71,0.00,,FEW070,0.00,468.00,VWS V15.00,2015-07-30 13:41:00,
2015-07-30 09:46:00,78.5,67.1,30.08,SW,236,1.5,6.0,68,0.00,,FEW070,0.00,490.00,VWS V15.00,2015-07-30 13:46:00,
2015-07-30 09:51:00,78.7,66.8,30.08,WNW,286,0.0,6.0,67,0.00,,FEW070,0.00,506.00,VWS V15.00,2015-07-30 13:51:00,
2015-07-30 09:56:00,79.1,67.6,30.08,SSW,207,0.0,6.0,68,0.00,,FEW070,0.00,519.00,VWS V15.00,2015-07-30 13:56:00,
2015-07-30 10:01:00,79.5,68.0,30.08,ENE,64,1.5,6.0,68,0.00,,FEW070,0.00,531.00,VWS V15.00,2015-07-30 14:01:00,
2015-07-30 10:06:00,79.5,66.7,30.08,NNE,26,0.0,6.0,65,0.00,,FEW070,0.00,406.00,VWS V15.00,2015-07-30 14:06:00,
2015-07-30 10:11:00,79.5,67.6,30.08,NNE,33,0.0,6.0,67,0.00,,FEW070,0.00,559.00,VWS V15.00,2015-07-30 14:11:00,
2015-07-30 10:16:00,80.0,67.2,30.08,SSE,151,0.0,6.0,65,0.00,,FEW070,0.00,571.00,VWS V15.00,2015-07-30 14:16:00,
2015-07-30 10:21:00,80.7,67.4,30.08,SSE,151,1.5,6.0,64,0.00,,FEW070,0.00,585.00,VWS V15.00,2015-07-30 14:21:00,
2015-07-30 10:26:00,81.2,67.9,30.08,NE,39,0.0,6.0,64,0.00,,FEW070,0.00,573.00,VWS V15.00,2015-07-30 14:26:00,
2015-07-30 10:31:00,81.6,67.8,30.08,SW,225,0.0,6.0,63,0.00,,FEW070,0.00,610.00,VWS V15.00,2015-07-30 14:31:00,
2015-07-30 10:36:00,82.0,67.7,30.08,North,360,0.0,6.0,62,0.00,,FEW070,0.00,624.00,VWS V15.00,2015-07-30 14:36:00,
2015-07-30 10:41:00,82.3,68.9,30.08,North,360,0.0,6.0,64,0.00,,FEW070,0.00,636.00,VWS V15.00,2015-07-30 14:41:00,
2015-07-30 10:47:00,82.7,67.4,30.08,NW,325,0.0,6.0,60,0.00,,FEW070,0.00,649.00,VWS V15.00,2015-07-30 14:47:00,
2015-07-30 10:52:00,82.3,65.1,30.08,NNE,23,1.5,6.0,56,0.00,,FEW070,0.00,661.00,VWS V15.00,2015-07-30 14:52:00,
2015-07-30 10:57:00,82.1,66.8,30.08,NNE,14,0.0,6.0,60,0.00,,FEW070,0.00,675.00,VWS V15.00,2015-07-30 14:57:00,
2015-07-30 11:02:00,82.2,66.5,30.08,WNW,301,1.5,6.0,59,0.00,,FEW070,0.00,682.00,VWS V15.00,2015-07-30 15:02:00,
2015-07-30 11:07:00,82.7,67.4,30.08,WSW,258,3.0,6.0,60,0.00,,FEW070,0.00,694.00,VWS V15.00,2015-07-30 15:07:00,
2015-07-30 11:12:00,83.3,68.5,30.08,WSW,258,0.0,6.0,61,0.00,,FEW070,0.00,703.00,VWS V15.00,2015-07-30 15:12:00,
2015-07-30 11:17:00,84.0,67.7,30.08,NNE,31,0.0,6.0,58,0.00,,FEW070,0.00,712.00,VWS V15.00,2015-07-30 15:17:00,
2015-07-30 11:22:00,83.9,67.1,30.08,NE,46,1.5,6.0,57,0.00,,FEW070,0.00,726.00,VWS V15.00,2015-07-30 15:22:00,
2015-07-30 11:27:00,83.8,66.4,30.08,NE,37,1.5,6.0,56,0.00,,FEW070,0.00,738.00,VWS V15.00,2015-07-30 15:27:00,
2015-07-30 11:37:00,84.5,67.6,30.08,West,273,1.5,6.0,57,0.00,,FEW070,0.00,752.00,VWS V15.00,2015-07-30 15:37:00,
2015-07-30 11:42:00,84.8,65.2,30.08,NNE,25,4.5,6.0,52,0.00,,FEW070,0.00,766.00,VWS V15.00,2015-07-30 15:42:00,
2015-07-30 11:47:00,84.5,66.6,30.08,WSW,244,0.0,6.0,55,0.00,,FEW070,0.00,772.00,VWS V15.00,2015-07-30 15:47:00,
2015-07-30 11:57:00,85.6,68.1,30.08,SW,232,4.5,6.0,56,0.00,,FEW070,0.00,788.00,VWS V15.00,2015-07-30 15:57:00,
2015-07-30 12:03:00,85.7,65.5,30.08,SW,221,0.0,6.0,51,0.00,,FEW070,0.00,796.00,VWS V15.00,2015-07-30 16:03:00,
2015-07-30 12:08:00,85.9,65.1,30.08,SSW,198,0.0,6.0,50,0.00,,FEW070,0.00,803.00,VWS V15.00,2015-07-30 16:08:00,
2015-07-30 12:13:00,86.6,66.9,30.08,SW,217,0.0,6.0,52,0.00,,FEW070,0.00,809.00,VWS V15.00,2015-07-30 16:13:00,
2015-07-30 12:18:00,86.9,67.7,30.08,SW,219,0.0,6.0,53,0.00,,FEW070,0.00,809.00,VWS V15.00,2015-07-30 16:18:00,
2015-07-30 12:23:00,87.3,68.6,30.08,NNE,32,0.0,6.0,54,0.00,,FEW070,0.00,810.00,VWS V15.00,2015-07-30 16:23:00,
2015-07-30 12:28:00,87.8,69.6,30.08,ENE,60,0.0,6.0,55,0.00,,FEW070,0.00,823.00,VWS V15.00,2015-07-30 16:28:00,
2015-07-30 12:33:00,87.8,67.4,30.08,ENE,60,0.0,6.0,51,0.00,,FEW070,0.00,826.00,VWS V15.00,2015-07-30 16:33:00,
2015-07-30 12:38:00,88.1,67.1,30.08,WSW,255,1.5,6.0,50,0.00,,FEW070,0.00,835.00,VWS V15.00,2015-07-30 16:38:00,
2015-07-30 12:43:00,88.5,67.5,30.08,SSW,210,3.0,6.0,50,0.00,,FEW070,0.00,840.00,VWS V15.00,2015-07-30 16:43:00,
2015-07-30 12:48:00,88.3,68.5,30.08,NNE,13,1.5,6.0,52,0.00,,FEW070,0.00,844.00,VWS V15.00,2015-07-30 16:48:00,
2015-07-30 12:53:00,87.8,68.0,30.08,NNW,337,0.0,6.0,52,0.00,,FEW070,0.00,847.00,VWS V15.00,2015-07-30 16:53:00,
2015-07-30 12:58:00,87.9,67.5,30.07,NNW,327,0.0,6.0,51,0.00,,FEW070,0.00,854.00,VWS V15.00,2015-07-30 16:58:00,
2015-07-30 13:03:00,88.4,66.8,30.07,NW,320,0.0,6.0,49,0.00,,FEW070,0.00,858.00,VWS V15.00,2015-07-30 17:03:00,
2015-07-30 13:09:00,88.6,68.2,30.07,SE,124,0.0,6.0,51,0.00,,FEW070,0.00,854.00,VWS V15.00,2015-07-30 17:09:00,
2015-07-30 13:14:00,88.7,65.9,30.07,WSW,250,1.5,6.0,47,0.00,,FEW070,0.00,865.00,VWS V15.00,2015-07-30 17:14:00,
2015-07-30 13:19:00,87.8,65.7,30.07,WNW,289,1.5,6.0,48,0.00,,FEW070,0.00,858.00,VWS V15.00,2015-07-30 17:19:00,
2015-07-30 13:24:00,87.9,65.2,30.07,West,262,1.5,6.0,47,0.00,,FEW070,0.00,865.00,VWS V15.00,2015-07-30 17:24:00,
2015-07-30 13:29:00,88.4,66.8,30.07,NE,34,0.0,6.0,49,0.00,,FEW070,0.00,867.00,VWS V15.00,2015-07-30 17:29:00,
2015-07-30 13:34:00,88.5,66.3,30.07,WSW,258,1.5,6.0,48,0.00,,FEW070,0.00,867.00,VWS V15.00,2015-07-30 17:34:00,
2015-07-30 13:39:00,89.1,66.9,30.07,NW,309,3.0,6.0,48,0.00,,FEW070,0.00,870.00,VWS V15.00,2015-07-30 17:39:00,
2015-07-30 13:44:00,87.9,65.8,30.07,NW,322,0.0,6.0,48,0.00,,FEW070,0.00,867.00,VWS V15.00,2015-07-30 17:44:00,
2015-07-30 13:49:00,87.7,67.3,30.07,North,5,6.0,6.0,51,0.00,,FEW070,0.00,861.00,VWS V15.00,2015-07-30 17:49:00,
2015-07-30 13:54:00,87.9,68.7,30.07,SW,218,0.0,6.0,53,0.00,,FEW070,0.00,872.00,VWS V15.00,2015-07-30 17:54:00,
2015-07-30 13:59:00,88.1,66.0,30.07,WSW,246,0.0,6.0,48,0.00,,FEW070,0.00,868.00,VWS V15.00,2015-07-30 17:59:00,
2015-07-30 14:04:00,87.6,66.7,30.07,SW,232,3.0,6.0,50,0.00,,FEW070,0.00,872.00,VWS V15.00,2015-07-30 18:04:00,
2015-07-30 14:09:00,88.3,66.7,30.07,West,264,3.0,6.0,49,0.00,,FEW070,0.00,867.00,VWS V15.00,2015-07-30 18:09:00,
2015-07-30 14:14:00,88.7,64.7,30.07,WNW,295,0.0,6.0,45,0.00,,FEW070,0.00,868.00,VWS V15.00,2015-07-30 18:14:00,
2015-07-30 14:20:00,88.2,65.4,30.06,West,267,0.0,6.0,47,0.00,,FEW070,0.00,865.00,VWS V15.00,2015-07-30 18:20:00,
2015-07-30 14:25:00,88.8,67.2,30.07,WNW,300,1.5,6.0,49,0.00,,FEW070,0.00,863.00,VWS V15.00,2015-07-30 18:25:00,